Regional Weather Roundup
Issued by NWS

Home | Current Version | Previous Version | Graphics & Text | Print | Product List | Glossary On
Versions: 1 2 3 4 5 6 7 8 9 10 11 12 13 14 15 16 17 18 19 20 21 22 23 24 25 26 27 28 29 30 31 32 33 34 35 36 37 38 39 40 41 42 43 44 45 46 47 48 49 50
000
ASUS43 KMPX 202110
RWRMN
WEATHER ROUNDUP FOR MINNESOTA
NATIONAL WEATHER SERVICE TWIN CITIES/CHANHASSEN MN
300 PM CST SAT DEC 20 2014


NOTE: "FAIR" INDICATES FEW OR NO CLOUDS BELOW 12,000 FEET WITH NO
SIGNIFICANT WEATHER AND/OR OBSTRUCTIONS TO VISIBILITY. N/A MEANS
CURRENT SKY AND/OR WEATHER CONDITIONS ARE NOT AVAILABLE.

MNZ060>063-068>070-202200-
   Twin Cities Metro

CITY           SKY/WX    TMP DP  RH WIND       PRES   REMARKS
TWIN CITIES    CLOUDY    31  27  85 S6        30.12S WCI  25
ST PAUL        CLOUDY    32  28  85 S10       30.13S WCI  24
CRYSTAL        LGT SNOW  32  26  78 S9        30.10S WCI  24
BLAINE         CLOUDY    34  30  86 SE9       30.10S WCI  26
LAKEVILLE      CLOUDY    30  27  86 S8        30.11S WCI  23
EDEN PRAIRIE   CLOUDY    31  26  82 S10       30.09F WCI  22
SOUTH ST PAUL  CLOUDY    32  28  85 S5        30.12S WCI  28
LAKE ELMO      CLOUDY    32  30  93 S7        30.13R WCI  26
$$
MNZ001>005-007-008-013>017-022>024-027-028-202200-
   Northwest Minnesota

CITY           SKY/WX    TMP DP  RH WIND       PRES   REMARKS
BEMIDJI        CLOUDY    28  28  96 S9        29.98S FOG     WCI  20
HALLOCK        FOG       28  27  93 CALM      29.93F VSB 3/4
ROSEAU         CLOUDY    30  27  86 S9        29.95S FOG     WCI  22
WARROAD        CLOUDY    28  25  86 S7        29.96S FOG     WCI  21
THIEF RVR FALL CLOUDY    30  28  93 S16       29.95F WCI  19
CROOKSTON      CLOUDY    30  28  93 S13       29.97S FOG     WCI  20
FOSSTON        CLOUDY    27  27 100 S13       29.97F FOG     WCI  16
DETROIT LAKES  CLOUDY    30  30 100 S12       29.98F FOG     WCI  21
MOORHEAD       CLOUDY    30  30 100 S12       29.98F FOG     WCI  21
PARK RAPIDS    CLOUDY    30  28  92 S13       29.99S FOG     WCI  20
MAHNOMEN       CLOUDY    29  28  96 S13       29.97S FOG     WCI  19
$$
MNZ006-009>011-018-025>026-202200-
   North Central Minnesota

CITY           SKY/WX    TMP DP  RH WIND       PRES   REMARKS
BAUDETTE       CLOUDY    30  27  88 S8        29.97S WCI  22
FLAG ISLAND    CLOUDY    28  27  93 S6        29.95F WCI  22
INTL FALLS     CLOUDY    30  28  92 SE5       30.00S FOG     WCI  25
WASKISH        CLOUDY    30  28  93 CALM      29.98S FOG
BIG FORK       MIX PCPN  30  28  93 S8        30.01S WCI  23
LONGVILLE      CLOUDY    28  28 100 S8        30.01S FOG     WCI  20
GRAND RAPIDS   CLOUDY    28  28 100 S9G16     30.02R WCI  20
CRANE LAKE     CLOUDY    28  27  93 S6        30.05S WCI  22
ORR            CLOUDY    28  27  93 S6        30.00S FOG     WCI  22
COOK           CLOUDY    28  27  93 S6        30.04R FOG     WCI  22
WALKER         CLOUDY    29  28  94 S7        30.00R FOG     WCI  22
$$
MNZ012-019>021-037-202200-
   Northeast Minnesota

CITY           SKY/WX    TMP DP  RH WIND       PRES   REMARKS
DULUTH         CLOUDY    30  26  85 S7        30.06S FOG     WCI  23
ELY            LGT SNOW  28  27  93 S6        30.04S WCI  22
HIBBING        CLOUDY    30  26  85 S9        30.03S FOG     WCI  22
EVELETH        CLOUDY    30  28  93 S8        30.05S FOG     WCI  23
DULUTH HARBOR  CLOUDY    34  28  80 CALM      30.12R
TWO HARBORS    CLOUDY    34  28  80 S6        30.08R WCI  29
SILVER BAY     CLOUDY    30  28  93 S3        30.08S FOG
GRAND MARAIS     N/A     33  28  81 S8        30.13S WCI  26
G MARAIS ARPRT CLOUDY    27  23  86 S6        30.07S FOG     WCI  20
$$
MNZ029>031-032-039>041-046>048-054>057-064-202200-
   West Central Minnesota

CITY           SKY/WX    TMP DP  RH WIND       PRES   REMARKS
FERGUS FALLS   CLOUDY    30  28  93 S14       30.01F FOG     WCI  20
WHEATON        CLOUDY    28  27  93 S8        30.01S FOG     WCI  20
MORRIS         SUNNY     34  30  86 S13       30.00S FOG     WCI  25
ALEXANDRIA     CLOUDY    30  27  88 S15       30.01F FOG     WCI  19
ELBOW LAKE     CLOUDY    31  29  93 S14       29.99F FOG     WCI  20
WADENA         CLOUDY    28  27  93 S12       30.00S FOG     WCI  18
GLENWOOD       CLOUDY    30  28  93 S12       30.02F FOG     WCI  21
APPLETON       CLOUDY    34  30  86 S7        30.01S FOG     WCI  28
BENSON         CLOUDY    34  28  80 S10       30.02F FOG     WCI  26
ORTONVILLE     CLOUDY    32  28  86 S7        29.99F FOG     WCI  26
MADISON        SUNNY     36  34  93 S9        30.01S FOG
WILLMAR        CLOUDY    34  28  80 S3        30.05F FOG
$$
MNZ033>034-036-042>043-049>051-058-059-202200-
   Central Minnesota

CITY           SKY/WX    TMP DP  RH WIND       PRES   REMARKS
ST CLOUD       CLOUDY    32  26  78 S12       30.07S WCI  23
SAUK CENTRE    CLOUDY    30  28  92 S8        30.04S FOG     WCI  23
PAYNESVILLE    CLOUDY    28  27  94 SE10      30.06R FOG     WCI  19
AITKIN         CLOUDY    32  27  80 S8        30.04R WCI  25
PINE RIVER     CLOUDY    28  28 100 S12       30.05R FOG     WCI  18
BRAINERD       CLOUDY    29  26  89 S14       30.04F WCI  18
STAPLES        CLOUDY    28  27  93 S12       30.03R FOG     WCI  18
LONG PRAIRIE   CLOUDY    30  28  93 S9        30.04R FOG     WCI  22
LITTLE FALLS   CLOUDY    30  27  86 S8        30.06S WCI  23
LITCHFIELD     CLOUDY    32  30  93 S5        30.07S WCI  27
BUFFALO        CLOUDY    30  26  84 S6        30.10R WCI  24
MAPLE LAKE     CLOUDY    31  28  88 S7        30.09R WCI  25
$$
MNZ037-044-045-052-053-202200-
   East Central Minnesota

CITY           SKY/WX    TMP DP  RH WIND       PRES   REMARKS
PRINCETON      CLOUDY    32  27  80 S8        30.09S WCI  25
MORA           CLOUDY    32  27  80 S10       30.10S WCI  24
CAMBRIDGE      CLOUDY    34  25  69 S8        30.08S WCI  27
RUSH CITY      CLOUDY    32  28  84 S7        30.10S WCI  25
MOOSE LAKE     CLOUDY    32  28  86 S9        30.06S FOG     WCI  24
HINCKLEY       CLOUDY    32  30  93 S6        30.09S FOG     WCI  26
CLOQUET        CLOUDY    30  27  86 S6        30.07R FOG     WCI  24
MCGREGOR       CLOUDY    30  30 100 S9        30.06S WCI  22
$$
MNZ071>073-080-081-089-090-097-098-202200-
   Southwest Minnesota

CITY           SKY/WX    TMP DP  RH WIND       PRES   REMARKS
MONTEVIDEO     CLOUDY    32  30  93 SW6       30.04S FOG     WCI  26
GRANITE FALLS  CLOUDY    32  29  90 S12       30.05S FOG     WCI  23
CANBY          CLOUDY    33  30  91 S10       30.01F FOG     WCI  24
MARSHALL       CLOUDY    32  27  80 SW13      30.03S WCI  22
REDWOOD FALLS  CLOUDY    32  28  85 S12       30.05F WCI  23
OLIVIA         CLOUDY    32  30  93 S9        30.05S WCI  24
PIPESTONE      FOG       30  28  93 S3        29.99S VSB 1
WINDOM         CLOUDY    30  28  93 CALM      30.05S
WORTHINGTON    CLOUDY    28  27  93 S12       30.04R WCI  18
JACKSON        CLOUDY    32  28  86 SE7       30.05F WCI  26
TRACY          CLOUDY    32  30  92 S7        30.03S FOG     WCI  26
SLAYTON        CLOUDY    30  30  99 S5        30.03R FOG     WCI  25
$$
MNZ065>067-074>077-082>085-091>093-202200-
   South Central Minnesota

CITY           SKY/WX    TMP DP  RH WIND       PRES   REMARKS
MANKATO        CLOUDY    30  25  80 S9        30.10R WCI  22
NEW ULM        CLOUDY    30  28  93 S8        30.08S WCI  23
ST JAMES       CLOUDY    34  28  80 S8        30.09S WCI  27
FAIRMONT       CLOUDY    30  27  86 S10       30.08R WCI  21
GLENCOE        CLOUDY    32  29  90 S7        30.09R WCI  25
FARIBAULT      CLOUDY    30  28  93 SE7       30.11S WCI  23
OWATONNA       CLOUDY    30  27  86 S7        30.10S WCI  23
WASECA         CLOUDY    32  30  93 S9        30.11S WCI  24
ALBERT LEA     CLOUDY    30  30 100 S7        30.09S FOG     WCI  23
$$
MNZ078>079-086>088-094>096-202200-
   Southeast Minnesota

CITY           SKY/WX    TMP DP  RH WIND       PRES   REMARKS
ROCHESTER      CLOUDY    30  28  92 S9        30.12S FOG     WCI  22
RED WING       CLOUDY    32  28  86 SE5       30.13S FOG     WCI  27
STANTON        CLOUDY    33  29  85 S5        30.11S WCI  28
DODGE CENTER   CLOUDY    30  30 100 S10       30.10F FOG     WCI  21
WINONA         CLOUDY    34  30  86 SE6       30.17S FOG     WCI  29
AUSTIN         CLOUDY    30  28  93 S7        30.10F WCI  23
PRESTON        CLOUDY    30  28  94 S8        30.13S FOG     WCI  22
$$
ABBREVIATIONS USED IN REMARKS
   TC - TEMPERATURES IN CELSIUS
  WCI - WIND CHILL INDEX
   HX - HEAT INDEX
  VSB - VISIBILITY
$$



USA.gov is the U.S. government's official web portal to all federal, state and local government web resources and services.